Regional Weather Roundup
Issued by NWS

Home | Current Version | Previous Version | Text Only | Print | Product List | Glossary On
Versions: 1 2 3 4 5 6 7 8 9 10 11 12 13 14 15 16 17 18 19 20 21 22 23 24 25 26 27
000
ASUS45 KBOU 051107
RWRCO

WEATHER ROUNDUP FOR COLORADO
NATIONAL WEATHER SERVICE DENVER/BOULDER CO
400 AM MST MON DEC 05 2016

NOTE: "FAIR" INDICATES FEW OR NO CLOUDS BELOW 12000 FEET WITH NO
SIGNIFICANT WEATHER AND/OR OBSTRUCTIONS TO VISIBILITY.

COZ001>005-013-030-031-051200-
...NORTHWEST COLORADO...

CITY           SKY/WX    TMP DP  RH WIND       PRES   REMARKS
CRAIG          CLOUDY    32  15  49 W9        29.72F WCI  24
HAYDEN         CLOUDY    30  16  55 W7        29.70F WCI  23
MEEKER         CLOUDY    37  15  40 S12       29.74F
MOUNT WERNER   NOT AVBL
STEAMBOAT SPGS CLOUDY    23  19  87 CALM      29.70F
WALDEN           N/A     30  19  64 SW12      29.69F WCI  21
$$

COZ006>008-011-051200-
...WEST CENTRAL VALLEYS...

CITY           SKY/WX    TMP DP  RH WIND       PRES   REMARKS
GRAND JUNCTION FAIR      25  21  85 NW6       29.83F WCI  18
MONTROSE       CLOUDY    29  20  69 E6        29.85F WCI  23
EAGLE          CLOUDY    28  18  66 CALM      29.78F
RIFLE          MOCLDY    27  20  75 W5        29.82F WCI  22
DELTA          NOT AVBL
NUCLA          CLOUDY    28  18  64 SE3       29.92F
$$

COZ017>023-064>068-051200-
...SOUTHWEST COLORADO...

CITY           SKY/WX    TMP DP  RH WIND       PRES   REMARKS
DURANGO        FAIR      20  15  81 N7        29.95F WCI  11
CORTEZ         FAIR      20  16  84 E7        29.93F WCI  11
PAGOSA SPRINGS FAIR      18  17  96 CALM      29.94F
TELLURIDE      NOT AVBL
WOLF CREEK PAS FAIR      16  10  79 SW14G25   29.97F WCI   1
$$

COZ009-010-012-014-032>034-037-058>063-051200-
...CENTRAL COLORADO...

CITY           SKY/WX    TMP DP  RH WIND       PRES   REMARKS
ASPEN          CLOUDY    30  21  69 E5        29.75F WCI  25
BUENA VISTA    FAIR      31  10  42 CALM      29.77F
COPPER MTN     LGT SNOW  27  14  59 MISG      29.80F
BERTHOUD PASS  LGT SNOW  19   7  58 W33G44    29.72F WCI   0
COTTONWOOD PAS CLOUDY    32  14  47 NW10G18   29.78F WCI  24
GUNNISON       MOCLDY    10   6  84 CALM      29.92F
KREMMLING      MOCLDY    39  19  45 SW7       29.71F
LEADVILLE      CLOUDY    31  12  45 SW10G21   29.76F WCI  22
MONARCH PASS   CLOUDY    19  12  73 W30G39    29.95F WCI   0
SALIDA         FAIR      33  10  37 SW10      29.85S WCI  25
SUNLIGHT       CLOUDY    19  14  79 SW22G35   29.82F WCI   3
WILKERSON PASS MOCLDY    25  10  54 SW17G28   29.80F WCI  11
$$

COZ069>075-051200-
...SAN LUIS VALLEY/SANGRE DE CRISTO MOUNTAINS...

CITY           SKY/WX    TMP DP  RH WIND       PRES   REMARKS
ALAMOSA        FAIR       0  -3  87 CALM      29.88F
LA VETA PASS   FAIR      27  12  54 NE38G55   29.77F WCI   9
SAGUACHE       FAIR      12   7  79 NW9       29.88F WCI   0
$$

COZ035-036-038>040-051200-
...NORTHERN COLORADO FRONT RANGE...

CITY           SKY/WX    TMP DP  RH WIND       PRES   REMARKS
DENVER INTL AP FAIR      44  16  32 NE3       29.59F
DMNS CITY PARK   N/A     33  16  50 NE2G12    29.58F
AURORA         PTCLDY    36  17  44 S7        29.60F
FRONT RANGE AP FAIR      41  18  38 SW3       29.61S
ERIE MUNI ARPT FAIR      42  14  32 E13       29.58F
BOULDER MUN AP FAIR      52  19  28 W22G31    29.56S
CENTENNIAL     FAIR      37  15  40 VRB6      29.61F
BROOMFIELD     FAIR      41  16  36 CALM      29.59F
FORT COLLINS   FAIR      45  18  33 NW10      29.58F
LONGMONT       FAIR      55  19  24 W15G33    29.57R
$$

COZ041-046-047-076>085-087-088-051200-
...PIKES PEAK/PALMER DIVIDE AND SOUTHERN FOOTHILLS...

CITY           SKY/WX    TMP DP  RH WIND       PRES   REMARKS
COLO. SPRINGS  FAIR      32  12  43 E12       29.65F WCI  23
A. F. ACADEMY  FAIR      26  13  57 NE9       29.64F WCI  17
SCHRIEVER AFB  NOT AVBL
ELLICOTT       FAIR     N/A N/A N/A S5        29.65F
FALCON         FAIR      34  12  39 CALM      29.68F
FORT CARSON    FAIR      31  12  44 NW8       29.63F WCI  24
LIMON          FAIR      21  14  74 N6        29.63F WCI  13
MONUMENT HILL  FAIR      36  16  44 W14       29.67S
TRINIDAD       FAIR      36  11  35 W14       29.69F
$$

COZ042>045-048>051-090-091-051200-
...NORTHEAST COLORADO...

CITY           SKY/WX    TMP DP  RH WIND       PRES   REMARKS
GREELEY ARPT   FAIR      25  14  63 VRB5      29.60F WCI  19
AKRON          FAIR      39  13  34 N5        29.59F
BURLINGTON     FAIR      27  13  55 W10       29.62F WCI  17
WRAY           NOT AVBL
STERLING       FAIR      21  14  73 W6        29.59F WCI  14
HOLYOKE        FAIR      32  21  64 CALM      29.59F
FORT MORGAN    FAIR      23  12  63 CALM      29.61F
$$

COZ086-089-092>099-051200-
...SOUTHEAST COLORADO...

CITY           SKY/WX    TMP DP  RH WIND       PRES   REMARKS
PUEBLO         FAIR      26  14  60 VRB6      29.64F WCI  19
LA JUNTA       FAIR      24  15  68 NW9       29.65F WCI  14
LAMAR          MIX PCPN  17  12  80 CALM      29.65F
SPRINGFIELD      N/A     27  18  69 MISG      29.66F
$$




USA.gov is the U.S. government's official web portal to all federal, state and local government web resources and services.